Content
SEND FEEDBACK

Daily
Averages
Monthly
Summary
United States of America

EL PASO, TEXAS


Home > North America > United States > Texas
Elevation: 3918 feet     Latitude: 31 48N     Longitude: 106 24W

WEATHER
 
SELECT A DAY
Number of Records: 175,423;   Date Range: 1/1/95 - 11/26/14
 
SHARE

PRINT THIS DATA

[ ← Previous Day ]
WEATHER ALMANAC - OCTOBER 26, 2013
[ Next Day → ]
[ °C ]   °F
Weather ElementAverageHighLow
Temperature63.8 °F77 °F (3:51 pm)54 °F (5:51 am)
Dewpoint38.8 °F45 °F (8:51 am)28.9 °F (4:51 pm)
Humidity44 %69 % (5:51 am)18 % (3:51 pm)
Barometer30.05 in30.11 in (9:51 am)29.99 in (1:51 am)
Wind Speed10.6 mph16.1 mph (11:51 am)
Wind Gust19.6 mph (1:51 pm)
Weather ElementAverage
Visibility10 mi
Wind DirectionSSW (210.4 °)

Weather ElementTotal
Precipitation---
Cooling Degree Days0.5 (Base 65)
Growing Degree Days15.5 (Base 50)
Averaged from 23 records on October 26, 2013
WEATHER CONDITIONS BREAKOUT
WIND DIRECTION BREAKOUT
Weather ElementAverageHighLow
Temperature63.8 °F77 °F (3:51 pm)54 °F (5:51 am)
Dewpoint38.8 °F45 °F (8:51 am)28.9 °F (4:51 pm)
Humidity44 %69 % (5:51 am)18 % (3:51 pm)
Barometer30.05 in30.11 in (9:51 am)29.99 in (1:51 am)
Wind Speed10.6 mph16.1 mph (11:51 am)
Wind Gust19.6 mph (1:51 pm)
Weather ElementAverage
Visibility10 mi
Wind DirectionSSW (210.4 °)

Weather ElementTotal
Precipitation---
Cooling Degree Days0.5 (Base 65)
Growing Degree Days15.5 (Base 50)
Averaged from 23 records on October 26, 2013
WEATHER CONDITIONS BREAKOUT
WIND DIRECTION BREAKOUT
WEATHER BY HOUR - OCTOBER 26, 2013
[ °C ]   °F
Local TimeTemperatureDewpointHumidityBarometerVisibilityWind DirectionWind SpeedGust SpeedPrecipitationEventsConditions
1:51 AM55.0 °F42.1 °F62 %29.99 in10.0 miNorth (360°)12.7 mphClear
2:51 AM55.9 °F43.0 °F62 %29.99 in10.0 miNorth (360°)11.5 mphClear
3:51 AM55.9 °F44.1 °F64 %29.99 in10.0 miNorth (360°)12.7 mphClear
4:51 AM55.0 °F44.1 °F67 %30.00 in10.0 miNorth (360°)11.5 mphClear
5:51 AM54.0 °F44.1 °F69 %30.02 in10.0 miNorth (10°)12.7 mphClear
6:51 AM54.0 °F44.1 °F69 %30.04 in10.0 miNorth (360°)10.4 mphClear
7:51 AM54.0 °F44.1 °F69 %30.07 in10.0 miNorth (360°)11.5 mphClear
8:51 AM57.0 °F45.0 °F64 %30.09 in10.0 miNorth (350°)11.5 mphClear
9:51 AM60.1 °F44.1 °F55 %30.11 in10.0 miNorth (360°)15.0 mphPartly Cloudy
10:51 AM66.0 °F43.0 °F43 %30.10 in10.0 miNorth (10°)15.0 mphPartly Cloudy
11:51 AM70.0 °F41.0 °F35 %30.08 in10.0 miNorth (10°)16.1 mphPartly Cloudy
12:51 PM73.0 °F39.0 °F29 %30.06 in10.0 miNorth (360°)12.7 mphScattered Clouds
1:51 PM75.0 °F36.0 °F24 %30.03 in10.0 miNorth (360°)12.7 mph19.6 mphScattered Clouds
2:51 PM75.9 °F32.0 °F20 %30.01 in10.0 miNNE (20°)12.7 mph17.3 mphScattered Clouds
3:51 PM77.0 °F30.0 °F18 %30.00 in10.0 miNorth (360°)9.2 mphScattered Clouds
4:51 PM75.9 °F28.9 °F18 %30.01 in10.0 miNorth (10°)8.1 mphScattered Clouds
5:51 PM73.9 °F32.0 °F21 %30.02 in10.0 miNNE (20°)9.2 mphScattered Clouds
6:51 PM71.1 °F32.0 °F24 %30.04 in10.0 miNorth (10°)8.1 mphPartly Cloudy
7:51 PM64.9 °F32.0 °F29 %30.07 in10.0 miNE (40°)9.2 mphPartly Cloudy
8:51 PM62.1 °F36.0 °F38 %30.08 in10.0 miENE (70°)8.1 mphPartly Cloudy
9:51 PM62.1 °F37.9 °F41 %30.09 in10.0 miNNW (330°)5.8 mphPartly Cloudy
10:51 PM60.1 °F39.0 °F46 %30.09 in10.0 miNorth (360°)6.9 mphClear
11:51 PM60.1 °F37.9 °F44 %30.07 in10.0 miCalmClear
Hourly data recorded from KELP, located miles away from El Paso, Texas







STORIES FROM OUR PARTNERS